[keps] orb07305.2l.amsat

Ray Hoad r.hoad at att.net
Thu Nov 1 17:50:12 PST 2007


SB KEPS @ AMSAT  $ORB07305.N
2Line Orbital Elements 07305.AMSAT

HR AMSAT ORBITAL ELEMENTS FOR AMATEUR SATELLITES IN NASA FORMAT
FROM WA5QGD FORT WORTH,TX November 1, 2007
Send Subscribe/unsubscribe to KEPS at 
http://www.amsat.org/mailman/listinfo/keps
BID: ORB07305.N

DECODE 2-LINE ELSETS WITH THE FOLLOWING KEY:
1 AAAAAU 00  0  0 BBBBB.BBBBBBBB  .CCCCCCCC  00000-0  00000-0 0  DDDZ
2 AAAAA EEE.EEEE FFF.FFFF GGGGGGG HHH.HHHH III.IIII JJ.JJJJJJJJKKKKKZ
KEY: A-CATALOGNUM B-EPOCHTIME C-DECAY D-ELSETNUM E-INCLINATION F-RAAN
G-ECCENTRICITY H-ARGPERIGEE I-MNANOM J-MNMOTION K-ORBITNUM Z-CHECKSUM

TO ALL RADIO AMATEURS BT

AO-07
1 07530U 74089B   07304.69039508 -.00000028  00000-0  10000-3 0 00162
2 07530 101.5000 338.6069 0011949 350.7873 009.2976 12.53572755508228
AO-10
1 14129U 83058B   07303.08054434  .00000158  00000-0  10000-3 0 04388
2 14129 026.0320 248.6856 6053649 068.7830 343.6293 02.05867397183342
UO-11
1 14781U 84021B   07304.66367560  .00000294  00000-0  46598-4 0 05109
2 14781 098.1805 329.9373 0010203 092.3246 267.9088 14.79590830269915
RS-15
1 23439U 94085A   07304.92289643 -.00000039  00000-0  10000-3 0 00947
2 23439 064.8159 145.7950 0154760 165.9968 194.5321 11.27552695529110
FO-29
1 24278U 96046B   07305.90486247 -.00000089  00000-0 -57161-4 0  6263
2 24278 098.5718 247.1623 0351401 086.5756 277.5504 13.52932665553521
SO-33
1 25509U 98061B   07304.71073318  .00000278  00000-0  41714-4 0 00549
2 25509 031.4294 173.8569 0355580 181.0107 178.9853 14.28186600470782
AO-40
1 26609U 00072B   07304.49464027 -.00000044  00000-0  10000-3 0  9614
2 26609 006.8647 113.1641 7938489 018.8809 358.7098 01.25583441 32159
VO-52
1 28650U 05017B   07304.68969924  .00000221  00000-0  34803-4 0 07671
2 28650 097.8186 012.2544 0027395 166.4699 193.7281 14.81375395134620
PO-63
1 29712U 07001D   07305.84708925  .00000692  00000-0  98476-4 0  8733
2 29712 097.9072 002.9998 0015140 046.9010 313.3451 14.79878759 43692
AO-16
1 20439U 90005D   07305.62252043 -.00000003  00000-0  13951-4 0  1697
2 20439 098.2082 292.6891 0011478 133.2920 226.9225 14.31774138928216
LO-19
1 20442U 90005G   07304.86939721  .00000038  00000-0  29009-4 0 00935
2 20442 098.1869 301.1036 0012412 134.1737 226.0456 14.32013911928251
AO-27
1 22825U 93061C   07305.41502896 -.00000100  00000-0 -22999-4 0  8164
2 22825 098.3527 269.4420 0007916 211.4677 148.6023 14.29220648735099
IO-26
1 22826U 93061D   07304.73873744  .00000020  00000-0  24000-4 0  5141
2 22826 098.3440 269.8062 0008205 211.9785 148.0903 14.29468445735086
PO-28
1 22829U 93061G   07304.90770874 -.00000055  00000-0 -50641-5 0 07911
2 22829 098.3335 271.1139 0009516 182.6074 177.5043 14.30170162735354
GO-32
1 25397U 98043D   07304.62746547 -.00000090  00000-0 -21633-4 0 04417
2 25397 098.3970 345.7559 0001280 152.3300 207.7953 14.23132723483564
MO-46
1 26548U 00057D   07305.46502729  .00000197  00000-0  41646-4 0  9360
2 26548 064.5550 117.9611 0001611 351.1197 008.9916 14.83190239383898
NO-44
1 26931U 01043C   07304.66141487  .00000151  00000-0  91492-4 0 07220
2 26931 067.0514 155.9343 0005675 253.6316 106.4122 14.29501865317609
SO-50
1 27607U 02058C   07304.67809170 -.00000039  00000-0  16016-4 0  4445
2 27607 064.5602 030.6053 0070237 326.3538 033.3104 14.71296838261207
CO-55
1 27844U 03031E   07304.60946046  .00000092  00000-0  63193-4 0  1563
2 27844 098.7200 311.0576 0010741 059.7255 300.4972 14.20540237224845
CO-57
1 27848U 03031J   07304.57715030  .00000017  00000-0  28362-4 0  1128
2 27848 098.7189 310.1759 0010625 062.3466 297.8786 14.20354833224817
AO-51
1 28375U 04025K   07305.81573334  .00000017  00000-0  17726-4 0  9484
2 28375 098.0978 337.9438 0084303 124.6915 236.2258 14.40584889175520
CO-56
1 28941U 06005C   07305.21656725  .00032623  25911-5  30144-3 0  6333
2 28941 098.1138 021.9840 0207360 145.7441 215.7484 15.45237759 94556
HO-59
1 29484U 06041F   07305.70932139  .00064539  36319-5  35050-3 0  8187
2 29484 098.2644 017.3541 0168927 128.7954 232.8408 15.62443328 62465
NO-61
1 29664U 06055F   07305.77861281  .00109274  16864-4  15273-3 0  6112
2 29664 051.6295 081.4278 0006455 179.6996 180.4048 16.05619609 50142
CP4
1 31122U 07012F   07304.62414395  .00000549  00000-0  13192-3 0 01761
2 31122 098.0725 013.4018 0085686 322.3564 037.1610 14.55046037028695
CP3
1 31128U 07012M   07304.43395542 -.00000048  00000-0  00000-0 0 01696
2 31128 098.0670 012.2303 0102063 325.5531 033.9081 14.51877935028592
LIBERT
1 31129U 07012N   07305.59352905  .00000336  00000-0  89029-4 0  4819
2 31129 098.0700 013.3655 0102144 322.2287 037.1760 14.51970767 28745
NOAA-10
1 16969U 86073A   07304.64858501  .00000049  00000-0  38017-4 0 08722
2 16969 098.7403 321.8840 0012889 127.2635 232.9724 14.27339118098694
NOAA-11
1 19531U 88089A   07304.83022570 -.00000256  00000-0 -10987-3 0 09042
2 19531 098.8087 032.2713 0011798 005.9146 354.2158 14.14853359985474
NOAA-12
1 21263U 91032A   07304.96267765  .00000128  00000-0  73000-4 0 04126
2 21263 098.7615 302.0316 0013347 072.6231 287.6437 14.25500619855734
MET-3/5
1 21655U 91056A   07304.91751964  .00000051  00000-0  10000-3 0 03798
2 21655 082.5522 266.3316 0012180 223.3486 136.6679 13.17013504779402
MET-2/21
1 22782U 93055A   07305.47821663 -.00000022  00000-0 -33249-4 0  9738
2 22782 082.5446 292.9983 0021589 207.8859 152.1159 13.83619923715505
OKEAN-4
1 23317U 94066A   07304.72064130  .00000020  00000-0 -57132-6 0 04136
2 23317 082.5386 169.1679 0022605 158.9541 201.2608 14.82544873704283
NOAA-14
1 23455U 94089A   07304.67418842  .00000296  00000-0  18014-3 0 08817
2 23455 098.9754 011.4875 0010215 076.9410 283.2911 14.13729503661920
SICH-1
1 23657U 95046A   07305.73326537  .00000282  00000-0  32801-4 0  2126
2 23657 082.5254 309.1689 0024938 147.2721 213.0059 14.81522855656397
NOAA-15
1 25338U 98030A   07304.91362071 -.00000027  00000-0  67128-5 0 02244
2 25338 098.5414 297.8113 0010596 356.1278 003.9813 14.24669909492153
RESURS
1 25394U 98043A   07305.77301324 -.00000019  00000-0  98882-5 0  7752
2 25394 098.4207 354.7360 0001818 118.2140 241.9223 14.24147956483931
FENGYUN1
1 25730U 99025A   07304.97196827  .00000173  00000-0  12729-3 0 02601
2 25730 098.7037 283.7454 0020158 093.1531 267.1943 14.07634048436714
OKEAN-0
1 25860U 99039A   07304.59185041  .00000066  00000-0  17431-4 0 02005
2 25860 097.7379 300.5202 0000878 036.4444 323.6820 14.73481851445587
NOAA-16
1 26536U 00055A   07304.90763317 -.00000068  00000-0 -11995-4 0 06680
2 26536 099.1354 284.3425 0010946 145.7844 214.4014 14.12456512366402
NOAA-17
1 27453U 02032A   07304.70077039  .00000131  00000-0  75910-4 0 06634
2 27453 098.5655 010.6328 0012515 060.2335 300.0069 14.23921162278145
NOAA-18
1 28654U 05018A   07304.67780596  .00000407  00000-0  25014-3 0 01843
2 28654 098.8423 243.7381 0013534 241.6467 118.3325 14.11108091126104
HUBBLE
1 20580U 90037B   07304.58139731  .00000400  00000-0  18227-4 0  9948
2 20580 028.4679 020.6713 0003663 112.4303 247.6677 15.00296666760467
UARS
1 21701U 91063B   07305.89028385  .00006278  00000-0  10089-3 0  2063
2 21701 056.9727 075.8392 0095627 098.3193 262.8720 15.49499492887089
PO-34
1 25520U 98064B   07304.28774993  .00000498  00000-0  14779-4 0 08570
2 25520 028.4605 277.8026 0005408 295.6733 064.3310 15.17073251498218
ISS
1 25544U 98067A   07305.97281407  .00070518  00000-0  44724-3 0  2755
2 25544 051.6405 113.4122 0003483 161.2327 285.2279 15.75858188512512
OO-38
1 26063U 00004C   07305.58812906 -.00000007  00000-0  17954-4 0   499
2 26063 100.2236 333.5827 0037150 132.8435 227.5881 14.35818707406766
UWE-1
1 28892U 05043C   07304.70620781  .00000156  00000-0  42397-4 0 08895
2 28892 098.1153 198.5137 0018085 048.9225 311.3548 14.59555632107125
CO-58
1 28895U 05043F   07304.74925301  .00000222  00000-0  56254-4 0 08653
2 28895 098.1163 198.8198 0018765 048.7776 311.5064 14.59599114107019
NCUBE2
1 28897U 05043H   07304.67164922  .00000165  00000-0  44158-4 0 03911
2 28897 098.1137 198.6890 0018187 049.4497 310.8287 14.59764044099289
FCAL
1 29667U 06055J   07305.78514119  .00029463  11559-4  87046-4 0  4563
2 29667 051.6322 090.0194 0011180 164.9194 195.2121 15.93900851 49903
FALCON
1 30776U 07006E   07305.78156622  .00000274  00000-0  23170-4 0  1743
2 30776 035.4327 098.5017 0001115 266.5285 093.5303 15.02792539 35768
MAST
1 31126U 07012K   07305.33199245  .00000111  00000-0  36082-4 0  1723
2 31126 098.0712 013.5609 0094090 321.5030 037.9463 14.53373218 28775
CAPE1
1 31130U 07012P   07304.91383352  .00000059  00000-0  24995-4 0 01546
2 31130 098.0701 012.6963 0102046 324.1264 035.3055 14.51897710028450
/EX






More information about the Keps mailing list